Location: Cornot
(47.6931°N, 5.8336°E)
Time: 09:19:34
(UTC+00:00)

Daily predictions for brighter satellites

Satellite Brightness Start Highest point End
(mag) Time Altitude Azimuth Time Altitude Azimuth Time Altitude Azimuth
Cosmos 2219 Rocket 3.3 18:22:50 10° SW 18:28:20 51° WNW 18:33:52 10° NNE
SL-14 R/B 4.3 18:26:01 10° N 18:29:36 29° ENE 18:33:06 10° SE
KORONAS-FOTON 3.8 18:27:11 10° N 18:31:02 69° E 18:34:48 10° SSE
COSMO-SKYMED 1 4.2 18:28:01 10° N 18:32:06 41° WNW 18:36:10 10° SW
STARLINK-1109 3.7 18:28:42 10° WNW 18:32:45 71° NNE 18:36:47 10° ESE
STARLINK-1246 4.2 18:29:57 10° SSW 18:33:41 36° SE 18:37:25 10° ENE
Cosmos 1943 Rocket 3.4 18:31:58 10° N 18:36:28 24° NE 18:40:56 10° E
STARLINK-1091 3.6 18:33:22 10° WNW 18:37:25 74° NNE 18:41:29 10° ESE
Cosmos 1980 3.7 18:32:09 10° SSW 18:37:50 84° ESE 18:43:33 10° NNE
CZ-2D R/B 4.5 18:34:29 10° S 18:38:09 46° W 18:41:51 10° NNW
Cosmos 1766 3.3 18:34:21 10° S 18:38:17 61° E 18:42:14 10° NNE
STARLINK-1099 4.5 18:35:20 10° WNW 18:39:17 42° N 18:43:15 10° E
S3M 4.1 18:33:52 10° S 18:40:11 69° E 18:46:33 10° NNE
Ariane Rocket 3.0 18:37:03 10° SSE 18:42:05 67° ENE 18:47:08 10° N
Cosmos 2084 4.1 18:37:40 10° SW 18:42:07 62° NW 18:46:35 10° NE
YAOGAN 1 4.0 18:38:14 10° S 18:42:20 42° W 18:46:28 10° NNW
STARLINK-1224 4.0 18:38:48 10° SSW 18:42:36 41° SE 18:46:24 10° ENE
BREEZE-M DEB (TANK) 4.3 18:28:24 10° WNW 18:43:09 55° SW 18:46:49 10° SE
Cosmos 1386 Rocket 4.4 18:37:17 10° N 18:43:22 75° E 18:49:22 10° SSE
SL-08 ROCKET BODY 4.4 18:37:24 10° N 18:43:35 74° E 18:49:36 10° SSE
STARLINK-1104 4.4 18:40:20 10° WNW 18:44:18 43° N 18:48:17 10° E
Cosmos 1455 Rocket 3.2 18:41:05 10° S 18:45:15 50° E 18:49:30 10° NNE
STARLINK-1225 3.9 18:43:26 10° SW 18:47:16 44° SE 18:51:08 10° ENE
Cosmos 1110 Rocket 4.0 18:42:00 10° NNW 18:47:18 85° ENE 18:52:32 10° SSE
Cosmos 332 Rocket 4.3 18:43:38 10° NNW 18:48:32 67° WSW 18:53:23 10° S
STARLINK-1203 3.8 18:45:23 10° SW 18:49:11 49° SE 18:53:01 10° ENE
STARLINK-1144 4.4 18:45:18 10° WNW 18:49:17 44° NNE 18:53:11 10° E
STARLINK-1072 3.5 18:46:34 10° WNW 18:50:35 87° NNE 18:54:14 12° ESE
Cosmos 1892 Rocket 3.6 18:46:33 10° N 18:51:03 88° WSW 18:55:32 10° S
SL-16 R/B 2.6 18:46:10 10° S 18:51:23 40° ESE 18:56:38 10° NE
STARLINK-1230 3.8 18:48:00 10° SW 18:51:53 48° SE 18:55:47 10° ENE
Cosmos 2333 Rocket 4.0 18:46:42 10° WSW 18:51:54 35° NW 18:57:07 10° NNE
Cosmos 1626 Rocket 4.2 18:48:31 10° N 18:52:35 35° ENE 18:56:37 10° SE
STARLINK-1103 4.3 18:50:17 10° WNW 18:54:17 45° NNE 18:57:58 12° E
USA 186 2.0 18:51:07 10° SSE 18:54:29 57° ENE 18:57:50 10° N
STARLINK-1096 3.5 18:51:02 10° WNW 18:55:03 88° SSW 18:58:31 13° ESE
STARLINK-1234 2.7 18:52:10 10° WSW 18:55:10 87° NNW 18:58:10 10° ENE
Cosmos 1953 4.0 18:53:53 12° ESE 18:55:26 15° E 18:57:44 10° NE
ARGOS Delta rocket 4.0 18:50:27 10° SSE 18:55:32 82° ENE 19:00:56 10° N
Cosmos 1626 2.3 18:51:58 10° N 18:55:35 48° ENE 18:59:11 10° SSE
STARLINK-1243 3.7 18:52:39 10° SW 18:56:34 52° SE 19:00:30 10° ENE
NOSS 2-1 (E) 4.1 18:54:36 10° WSW 18:57:54 47° NW 19:01:38 10° NNE
Okean 1-7 Rocket 3.6 18:54:32 10° N 18:58:58 85° W 19:03:21 10° S
STARLINK-1101 4.3 18:55:18 10° WNW 18:59:18 46° NNE 19:02:46 13° E
STARLINK-1079 3.5 18:55:30 10° WNW 18:59:31 84° SSW 19:02:49 15° ESE
Cosmos 1602 Rocket 4.3 18:56:03 10° N 19:00:08 34° ENE 19:03:54 11° SE
STARLINK-1236 3.7 18:57:16 10° SW 19:01:13 55° SE 19:05:11 10° ENE
ATLAS 2AS CENTAUR R/B 4.2 18:57:08 10° NW 19:03:48 29° NNE 19:10:06 10° ENE
STARLINK-1116 3.6 18:59:58 10° WNW 19:03:59 79° SSW 19:07:08 16° SE
STARLINK-1102 4.2 19:00:16 10° WNW 19:04:18 48° NNE 19:07:32 15° E
H-2A R/B 2.1 19:01:03 10° SSE 19:06:24 87° ENE 19:11:37 10° NNW
STARLINK-1111 4.2 19:05:15 10° WNW 19:09:18 49° NNE 19:12:19 17° E
Aureole 2 Rocket 4.2 19:06:57 10° N 19:09:26 18° NE 19:10:31 16° ENE
Cosmos 883 Rocket 4.4 19:04:15 10° S 19:10:23 71° E 19:16:38 10° NNE
STARLINK-1269 3.5 19:06:37 10° SW 19:10:36 64° SSE 19:14:26 11° ENE
ERBS 3.9 19:09:31 10° W 19:12:38 34° NNW 19:15:46 10° NE
Cosmos 1544 Rocket 3.5 19:08:18 10° S 19:12:40 74° E 19:17:06 10° NNE
STARLINK-1094 3.7 19:08:58 10° WNW 19:12:57 70° SSW 19:15:46 19° SE
STARLINK-1073 4.1 19:10:14 10° WNW 19:14:18 51° NNE 19:17:06 19° E
Cosmos 2297 3.7 19:09:22 10° NNW 19:15:05 88° ENE 19:20:47 10° SSE
USA 234 3.4 19:08:52 10° ENE 19:15:17 55° SE 19:21:40 10° SSW
STARLINK-1200 3.5 19:11:17 10° SW 19:15:18 69° SSE 19:18:56 12° ENE
CZ-2C R/B 4.1 19:11:06 10° NNE 19:15:41 45° E 19:20:11 10° S
STARLINK-1117 3.7 19:13:29 10° WNW 19:17:28 65° SSW 19:20:07 20° SE
STARLINK-1121 4.1 19:15:14 10° WNW 19:19:18 53° NNE 19:21:53 21° E
STARLINK-1192 3.5 19:15:54 10° SW 19:19:56 73° SSE 19:23:24 14° ENE
ADEOS Rocket 4.5 19:13:51 10° N 19:20:21 45° WNW 19:26:12 10° SW
Cosmos 2237 Rocket 3.1 19:16:09 10° SW 19:21:38 52° WNW 19:27:09 10° NNE
STARLINK-1078 3.8 19:17:59 10° WNW 19:21:57 61° SSW 19:24:26 21° SE
STARLINK-1106 4.0 19:20:12 10° WNW 19:24:17 55° NNE 19:26:39 23° E
STARLINK-1244 3.4 19:20:41 10° SW 19:24:43 78° SSE 19:28:00 15° ENE
Cosmos 1302 Rocket 4.0 19:19:33 10° NNW 19:24:52 85° ENE 19:29:43 12° SSE
STARLINK-1201 3.2 19:21:52 10° WSW 19:25:07 70° NNW 19:27:31 17° ENE
STARLINK-1108 3.9 19:22:31 10° WNW 19:26:28 57° SW 19:28:47 23° SE
Cosmos 2278 Rocket 4.4 19:22:22 10° NW 19:26:54 25° WSW 19:31:24 10° SSW
CZ-2C R/B 3.0 19:22:53 10° NNE 19:27:41 37° E 19:32:26 10° SSE
Cosmos 2184 Rocket 4.5 19:22:19 10° N 19:28:18 42° ENE 19:32:14 20° SE
Cosmos 1758 Rocket 4.4 19:24:54 10° N 19:28:48 31° ENE 19:30:09 26° ESE
Cosmos 1269 Rocket 4.1 19:23:32 10° SSW 19:28:50 86° WNW 19:34:10 10° NNE
STARLINK-1112 3.9 19:25:11 10° WNW 19:29:18 58° NNE 19:31:27 26° E
STARLINK-1138 3.4 19:25:22 10° WSW 19:29:25 83° SSE 19:32:32 17° ENE
STARLINK-1209 3.5 19:27:39 10° W 19:30:30 48° NNW 19:32:14 20° NE
STARLINK-1066 4.4 19:27:58 10° WNW 19:30:47 29° SW 19:32:18 19° S
STARLINK-1071 4.0 19:27:03 10° WNW 19:30:58 53° SW 19:33:08 24° SSE
STARLINK-1081 4.4 19:28:27 10° WNW 19:31:12 29° SW 19:32:41 19° S
STARLINK-1228 3.5 19:28:39 10° W 19:31:27 47° NNW 19:33:08 20° NE
STARLINK-1070 4.4 19:28:54 10° W 19:31:39 28° SW 19:33:06 19° S
STARLINK-1124 4.1 19:27:57 10° WNW 19:32:00 53° SW 19:34:14 24° SSE
STARLINK-1069 4.4 19:29:19 10° W 19:32:05 28° SW 19:33:34 19° S
STARLINK-1085 4.5 19:29:45 10° W 19:32:32 28° SW 19:34:00 19° S
STARLINK-1086 4.5 19:30:17 10° W 19:33:00 28° SW 19:34:25 19° S
STARLINK-1095 4.5 19:30:43 10° W 19:33:26 27° SW 19:34:50 19° S
STARLINK-1077 4.5 19:31:10 10° W 19:33:53 27° SW 19:35:16 19° S
STARLINK-1143 3.5 19:30:08 10° WSW 19:34:11 88° SSE 19:37:08 18° ENE
STARLINK-1128 3.9 19:30:11 10° WNW 19:34:18 61° NNE 19:36:15 29° E
ARGOS 3.5 19:29:11 10° S 19:34:32 66° WSW 19:39:56 10° NNW
SL-8 R/B 3.7 19:30:29 10° W 19:35:17 81° N 19:38:02 25° E
STARLINK-1110 4.1 19:31:35 10° WNW 19:35:29 49° SW 19:37:29 25° SSE
Cosmos 2251 Rocket 4.1 19:30:59 10° SSE 19:35:46 34° ESE 19:40:36 10° NE
SL-24 R/B 4.0 19:32:56 10° NNE 19:37:38 65° E 19:41:42 10° S
STARLINK-1113 3.8 19:35:10 10° WNW 19:39:18 64° NNE 19:41:02 32° E
Cosmos 1470 2.7 19:37:39 10° S 19:41:32 86° W 19:45:27 10° N
STARLINK-1119 3.7 19:40:08 10° WNW 19:44:16 67° NNE 19:45:48 36° E
STARLINK-1122 4.3 19:40:47 10° WNW 19:44:37 43° SW 19:46:17 27° SSE
STARLINK-1241 3.5 19:40:36 10° WSW 19:44:38 82° NNW 19:47:06 23° ENE
STARLINK-1233 3.6 19:41:51 10° W 19:44:55 51° NNW 19:46:21 27° NE
STARLINK-1212 3.6 19:42:18 10° W 19:45:22 51° NNW 19:46:46 27° NE
SL-08 RB Rocket 4.1 19:41:14 10° S 19:45:42 64° WSW 19:50:16 10° NNW
Cosmos 2315 Rocket 4.1 19:39:28 10° S 19:45:46 81° W 19:52:11 10° N
STARLINK-1105 3.6 19:42:45 10° W 19:45:49 50° NNW 19:47:13 27° NE
STARLINK-1206 3.6 19:43:14 10° W 19:46:17 50° NNW 19:47:38 28° NE
STARLINK-1247 3.6 19:43:41 10° W 19:46:44 50° NNW 19:48:03 28° NE
SJ-6B 3.9 19:42:56 10° S 19:46:52 47° W 19:50:52 10° NNW
STARLINK-1227 3.7 19:44:06 10° W 19:47:10 50° NNW 19:48:30 28° NE
MetOp-A 4.1 19:42:29 13° SSE 19:47:17 87° WSW 19:52:41 10° NNW
ISS -3.4 19:44:07 10° WNW 19:47:26 55° NNE 19:48:11 43° ENE
Resurs 1-3 3.5 19:44:43 21° SSE 19:47:35 86° ENE 19:52:00 10° NNW
STARLINK-1218 3.7 19:44:36 10° W 19:47:38 49° NNW 19:48:55 28° NE
STARLINK-1226 3.7 19:45:04 10° W 19:48:06 49° NNW 19:49:22 29° NE
STARLINK-1254 3.7 19:45:28 10° W 19:48:31 49° NNW 19:49:48 29° NE
STARLINK-1215 3.7 19:45:58 10° W 19:49:00 48° NNW 19:50:14 29° NE
STARLINK-1239 3.6 19:45:12 10° WSW 19:49:13 78° NNW 19:51:30 25° ENE
STARLINK-1126 4.5 19:45:26 10° WNW 19:49:14 40° SW 19:50:44 28° S
STARLINK-1114 3.7 19:45:08 10° WNW 19:49:17 70° NNE 19:50:36 41° E
STARLINK-1231 3.7 19:46:25 10° W 19:49:26 48° NNW 19:50:39 30° NE
Cosmos 1758 3.4 19:45:22 10° SSW 19:49:27 78° W 19:53:34 10° N
ERS-1 Rocket 4.4 19:48:48 21° ENE 19:49:31 21° ENE 19:53:15 10° NNE
STARLINK-1232 3.7 19:47:19 10° W 19:50:21 48° NNW 19:51:31 30° NE
STARLINK-1217 3.7 19:47:47 10° W 19:50:49 47° NNW 19:51:58 30° NE
STARLINK-1208 3.7 19:48:11 10° W 19:51:15 47° NNW 19:52:25 30° NE
STARLINK-1229 3.7 19:48:40 10° W 19:51:42 47° NNW 19:52:48 31° NE
STARLINK-1271 3.8 19:49:08 10° W 19:52:11 47° NNW 19:53:17 31° NE
BREEZE-M DEB (TANK) 3.5 19:45:36 10° WNW 19:52:14 76° N 19:53:09 45° E
IRIDIUM 104 4.2 19:47:13 10° N 19:52:28 80° E 19:56:26 18° S
STARLINK-1270 3.8 19:49:36 10° W 19:52:37 46° NNW 19:53:42 31° NE
BREEZE M DEB (TANK) 4.3 19:43:40 10° SW 19:52:58 34° SSE 19:53:49 32° SE
STARLINK-1154 3.8 19:50:03 10° W 19:53:04 46° NNW 19:54:07 31° NE
CZ-2C R/B 4.2 19:48:33 10° SSW 19:53:20 41° W 19:57:56 10° NNW
STARLINK-1240 3.7 19:49:49 10° WSW 19:53:50 74° NNW 19:55:56 27° NE
STARLINK-1197 3.8 19:50:57 10° W 19:53:58 46° NNW 19:54:59 32° NNE
STARLINK-1130 (DARKSAT) 3.6 19:50:06 10° WNW 19:54:15 74° NNE 19:55:22 46° E
STARLINK-1189 3.8 19:51:24 10° W 19:54:25 45° NNW 19:55:26 32° NNE
Resurs 01 Rocket 1.5 19:53:05 34° SSE 19:54:56 73° ENE 19:59:21 10° N
STARLINK-1187 3.9 19:52:17 10° W 19:55:18 43° NNW 19:56:21 30° NNE
STARLINK-1188 3.8 19:52:18 10° W 19:55:19 45° NNW 19:56:17 32° NNE
Cosmos 2369 Rocket 2.3 19:49:49 10° NNW 19:55:30 62° ENE 19:57:50 35° SE
STARLINK-1198 3.8 19:52:33 10° W 19:55:34 45° NNW 19:56:31 33° NNE
SPOT 5 4.4 19:56:05 17° ENE 19:56:05 17° ENE 19:58:43 10° NNE
STARLINK-1235 4.1 19:53:01 10° W 19:56:01 40° NNW 19:57:05 29° NNE
STARLINK-1199 3.9 19:54:15 10° W 19:57:17 44° NNW 19:58:13 33° NNE
STARLINK-1191 3.9 19:54:43 10° W 19:57:45 44° NNW 19:58:39 33° NNE
STARLINK-67 4.1 19:55:30 10° WNW 19:57:49 28° N 19:58:04 27° N
STARLINK-1210 3.9 19:55:09 10° W 19:58:11 44° NNW 19:59:05 33° NNE
STARLINK-1216 3.7 19:54:27 10° WSW 19:58:27 70° NNW 20:00:23 29° NE
STARLINK-1221 3.9 19:55:37 10° W 19:58:40 44° NNW 19:59:32 34° NNE
STARLINK-1219 3.9 19:56:04 10° W 19:59:06 44° NNW 19:59:58 34° NNE
Cosmos 2263 4.5 19:53:41 10° NNW 19:59:10 50° ENE 20:01:00 36° ESE
STARLINK-1084 3.6 19:55:04 10° WNW 19:59:14 78° NNE 20:00:09 52° E
STARLINK-1222 3.9 19:56:31 10° W 19:59:33 43° NNW 20:00:22 34° NNE
STARLINK-1211 3.9 19:56:59 10° W 20:00:00 43° NNW 20:00:48 34° NNE
STARLINK-1214 3.9 19:57:27 10° W 20:00:27 43° NNW 20:01:15 35° NNE
STARLINK-1245 3.9 19:57:56 10° W 20:00:56 43° NNW 20:01:40 35° NNE
STARLINK-1238 3.9 19:58:21 10° W 20:01:22 43° NNW 20:02:07 35° NNE
IRIDIUM 114 4.3 19:56:23 10° N 20:01:38 86° W 20:05:35 18° S
Meteor 2-15 Rocket 4.4 19:55:44 10° S 20:01:48 84° W 20:07:55 10° N
STARLINK-1205 3.9 19:59:18 10° W 20:02:18 42° NNW 20:02:58 36° NNE
STARLINK-1204 4.0 19:59:44 10° W 20:02:44 42° NNW 20:03:23 36° NNE
STARLINK-1237 3.8 19:59:07 10° WSW 20:03:08 67° NNW 20:04:52 32° NE
STARLINK-1098 3.5 20:00:02 10° WNW 20:04:12 83° NNE 20:04:55 59° ESE
SPOT 3 Rocket 4.1 20:00:43 12° S 20:05:33 56° W 20:10:42 10° NNW
Cosmos 1726 2.3 20:06:29 53° ENE 20:06:29 53° ENE 20:09:41 10° NNE
Landsat 7 4.4 20:06:34 37° E 20:06:56 38° ENE 20:11:20 10° N
STARLINK-1202 3.9 20:03:46 10° WSW 20:07:45 63° NNW 20:09:18 35° NE
Meteor 1-21 Rocket 4.2 20:02:29 10° NNW 20:08:05 80° W 20:11:31 24° S
Nadezhda 1 Rocket 4.2 20:06:17 33° SE 20:08:52 50° E 20:15:01 10° NNE
STARLINK-1123 3.5 20:05:02 10° WNW 20:09:12 87° NNE 20:09:44 67° ESE
Cosmos 2228 3.6 20:11:02 39° ENE 20:11:02 39° ENE 20:14:19 10° NNE
MOS 1 Rocket 3.5 20:07:32 10° NNE 20:12:45 89° WNW 20:18:09 10° SSW
STARLINK-1246 4.0 20:08:53 10° WSW 20:12:54 60° NNW 20:14:18 37° NE
STARLINK-1097 3.4 20:10:00 10° WNW 20:14:10 88° SSW 20:14:29 75° SE
Cosmos 292 Rocket 3.8 20:13:00 10° NNW 20:17:48 78° WSW 20:19:07 48° S
Cosmos 1943 3.5 20:19:28 43° E 20:19:28 43° E 20:24:12 10° NE
STARLINK-1099 3.4 20:15:00 10° WNW 20:19:09 83° SSW 20:19:17 81° S
Cosmos 1943 Rocket 2.3 20:15:13 10° NNW 20:20:44 70° WSW 20:22:51 38° S
STARLINK-1224 4.1 20:17:48 10° W 20:21:46 55° NNW 20:22:45 43° NNE
Cosmos 2074 Rocket 4.0 20:16:55 10° N 20:23:13 80° W 20:26:45 28° S
NOSS 3-4 (A) 4.4 20:16:43 10° NW 20:23:14 46° NE 20:25:57 33° E
NOSS 3-4 (C) 4.4 20:16:49 10° NW 20:23:20 45° NE 20:26:03 33° E
STARLINK-1104 3.5 20:19:59 10° WNW 20:24:04 78° SW 20:24:04 78° SW
STARLINK-1225 4.2 20:22:32 10° W 20:26:30 53° NNW 20:27:17 45° NNE
Cosmos 1328 4.1 20:23:20 10° N 20:26:45 59° NNE 20:26:45 59° NNE
STARLINK-1203 4.2 20:24:16 10° W 20:28:06 50° NNW 20:28:44 45° NNE
STARLINK-1144 3.7 20:24:57 10° WNW 20:28:50 70° WSW 20:28:50 70° WSW
Cosmos 1437 4.3 20:26:47 10° NNW 20:28:32 31° NNW 20:28:32 31° NNW
STARLINK-1230 4.2 20:27:12 10° W 20:31:09 51° NNW 20:31:44 47° NNE
Cosmos 1953 3.2 20:29:29 26° SW 20:31:24 48° WNW 20:35:17 10° N
Meteor 2-10 4.1 20:28:33 22° SSW 20:32:04 80° WNW 20:37:38 10° N
SPOT 1/Viking Rocket 3.6 20:32:06 57° E 20:32:23 58° ENE 20:37:31 10° N
NOSS 3-3 (A) 3.8 20:27:16 10° SSW 20:33:02 65° ESE 20:39:34 10° NE
NOSS 3-3 (C) 3.8 20:27:23 10° SSW 20:33:08 64° ESE 20:39:39 10° NE
Spot 2 Rocket 3.4 20:33:06 63° SSE 20:33:58 88° ENE 20:39:08 10° NNW
STARLINK-1103 3.9 20:29:56 10° WNW 20:33:37 62° WSW 20:33:37 62° WSW
Cosmos 2084 Rocket 3.8 20:30:47 10° NW 20:35:11 58° SW 20:35:19 58° SW
SL-16 R/B 3.6 20:30:16 10° WSW 20:35:32 39° NW 20:40:50 10° NNE
STARLINK-1243 4.3 20:31:57 10° W 20:35:53 49° NNW 20:36:16 47° N
Cosmos 1610 Rocket 4.4 20:30:59 10° N 20:37:16 87° E 20:39:03 50° SSE
STARLINK-1101 4.1 20:34:56 10° WNW 20:38:25 54° WSW 20:38:25 54° WSW
STARLINK-1236 4.3 20:36:39 10° W 20:40:34 48° NNW 20:40:45 47° N
IGS 5A 4.0 20:42:14 53° N 20:42:14 53° N 20:45:32 10° N
Aureole 2 Rocket 3.9 20:40:06 10° NW 20:42:44 35° WNW 20:42:44 35° WNW
STARLINK-1102 4.4 20:39:55 10° WNW 20:43:11 48° W 20:43:11 48° W
Terra 2.9 20:49:36 34° NE 20:49:36 34° NE 20:52:57 10° N
Cosmos 2341 Rocket 4.0 20:47:06 10° N 20:53:27 66° ENE 20:53:51 64° E
Cosmos 1703 4.3 20:50:04 10° NNW 20:53:09 46° NW 20:53:09 46° NW
Cosmos 1726 Rocket 4.1 20:55:09 55° NNW 20:55:09 55° NNW 20:58:42 10° N
ATLAS 2AS CENTAUR R/B 2.9 20:48:35 10° NW 20:56:16 66° NE 20:57:42 55° E
Cosmos 1603 3.7 20:53:25 24° SW 20:56:55 78° WNW 21:02:34 10° NNE
USA 234 3.6 20:51:57 10° NE 20:58:23 62° NNW 21:04:48 10° WSW
APEX 4.5 20:58:55 10° NNW 21:05:52 65° ENE 21:06:05 64° ENE
CZ-2C R/B 4.1 21:03:19 10° N 21:07:57 34° WNW 21:12:32 10° SW
Aureole 1 Rocket 4.2 21:07:14 65° SSE 21:08:02 70° ESE 21:14:41 10° NNE
COSMOS 2455 3.5 21:05:23 10° NNW 21:11:09 44° NE 21:11:09 44° NE
Meteor 1-11 4.5 21:05:50 10° NNW 21:11:35 63° W 21:12:06 60° WSW
Cosmos 2218 Rocket 4.1 21:16:00 10° N 21:21:25 61° NE 21:21:25 61° NE
Cosmos 1656 Rocket 4.0 21:17:24 10° NNW 21:22:37 60° W 21:22:37 60° W
ISS -0.4 21:21:02 10° WNW 21:21:09 11° WNW 21:21:09 11° WNW
ERS-1 Rocket 3.6 21:28:47 52° WNW 21:28:47 52° WNW 21:32:53 10° NNW
Resurs 01 Rocket 4.3 21:30:38 12° WSW 21:31:57 13° W 21:34:02 10° WNW
Cosmos 2181 Rocket 4.2 21:33:10 65° NNE 21:33:10 65° NNE 21:38:26 10° N
SPOT 5 4.2 21:35:19 34° NW 21:35:19 34° NW 21:37:55 10° NNW
Cosmos 2369 Rocket 3.9 21:34:39 10° NW 21:39:02 23° WSW 21:39:39 23° WSW
SL-8 Rocket 4.4 21:50:59 10° NNW 21:56:35 58° WNW 21:56:35 58° WNW
CZ-4C R/B 4.4 21:57:47 10° NW 22:03:17 27° NNE 22:06:33 20° ENE
Cosmos 2366 rocket 4.5 21:58:18 10° NNW 22:03:18 56° NW 22:03:18 56° NW
Mayak 1.6 22:06:23 10° N 22:06:55 13° N 22:06:55 13° N
NOSS 3-4 (A) 4.3 22:07:36 10° NW 22:13:24 53° W 22:13:24 53° W
NOSS 3-4 (C) 4.3 22:07:41 10° NW 22:13:30 53° W 22:13:30 53° W
Terra 4.1 22:28:29 20° NW 22:28:29 20° NW 22:30:28 10° NW
Cosmos 1697 Rocket 4.3 22:22:32 10° NNW 22:26:03 29° NNE 22:26:03 29° NNE
USA 234 4.3 22:34:48 10° ENE 22:40:47 40° N 22:46:47 10° WNW
ATLAS 2AS CENTAUR R/B 4.0 22:40:13 10° NW 22:45:08 31° W 22:45:08 31° W
Cosmos 1980 Rocket 4.0 22:47:38 10° NNW 22:50:54 26° NNE 22:50:54 26° NNE
ATLAS 5 CENTAUR R/B 4.4 23:39:11 16° NNE 23:39:11 16° NNE 23:40:24 10° NNE
